Flag for China Weather past 2 weeks in Lanzhou, Gansu, China

Now
59 °F

Passing clouds.


Feels Like: 59 °F
Forecast: 48 / 64 °F
Wind: 1 mph from South

Location: Lanzhou / Zhongchuan

Current Time: Sep 21, 2014 at 5:03:28 AM

Latest Report: Sep 21, 2014 at 4:00 AM


Visibility: N/A

Pressure: 30.07 "Hg

Humidity: 77%

Dew point: 52 °F

Location of LanzhouLocation

Historic Weather in Lanzhou — Graph

°F

Lanzhou temperature yesterday

Maximum temperature yesterday: 73 °F (at 3:00 PM)
Minimum temperature yesterday: 45 °F (at 7:00 AM)
Average temperature yesterday: 60 °F

Past Weeks' High & Low Weather Summary

 TemperatureHumidityPressure
High77 °F (Sep 9, 3:00 PM)100% (Sep 9, 6:00 AM)30.27 "Hg (Sep 9, 6:00 AM)
Low45 °F (Sep 19, 7:00 AM)28% (Sep 9, 5:00 PM)29.92 "Hg (Sep 6, 4:00 AM)
Average58 °F75%30.11 "Hg
* Reported Sep 6 4:00 AM — Sep 21 4:00 AM, Lanzhou, Weather by CustomWeather, © 2014

Note: Actual official high and low records may vary slightly from our data, if they occured in-between our weather recording intervals... More about our weather records

Advertising

Lanzhou weather history for previous 24 hours

 ConditionsComfort  
Time TempWeatherWind HumidityBarometerVisibility
4:00 AM
Sep 21
59 °FPassing clouds.1 mph77%30.07 "HgN/A
3:00 AM59 °FPassing clouds.No wind77%30.07 "HgN/A
2:00 AM59 °FPassing clouds.No wind77%30.09 "HgN/A
1:00 AM59 °FPassing clouds.3 mph77%30.07 "HgN/A
9:00 PM
Sep 20
63 °FClear.3 mph56%30.04 "Hg10 mi
8:00 PM66 °FSunny.3 mph49%30.01 "Hg10 mi
7:00 PM70 °FSunny.8 mph40%29.98 "Hg10 mi
6:00 PM72 °FPassing clouds.8 mph38%29.98 "HgN/A
5:00 PM73 °FPassing clouds.6 mph38%29.95 "HgN/A
4:00 PM73 °FPassing clouds.3 mph36%29.95 "HgN/A
3:00 PM73 °FSunny.6 mph31%29.98 "Hg10 mi
2:00 PM72 °FSunny.6 mph38%30.01 "Hg10 mi
1:00 PM70 °FPassing clouds.6 mph40%30.04 "HgN/A
12:00 PM68 °FSunny.3 mph49%30.07 "Hg10 mi
11:00 AM64 °FSunny.3 mph56%30.07 "Hg10 mi
10:00 AM63 °FPassing clouds.3 mph56%30.07 "HgN/A
9:00 AM59 °FSunny.No wind63%30.07 "Hg10 mi
8:00 AM52 °FSunny.3 mph77%30.07 "Hg10 mi
7:00 AM45 °FClear.3 mph93%30.04 "Hg10 mi
6:00 AM46 °FClear.6 mph87%30.04 "Hg10 mi
5:00 AM48 °FPassing clouds.3 mph87%30.04 "HgN/A
Weather by CustomWeather, © 2014

See weather overviewHow to use our weather pages